Regional Weather Roundup
Issued by NWS

Home | Current Version | Previous Version | Text Only | Print | Product List | Glossary On
Versions: 1 2 3 4 5 6 7 8 9 10 11 12 13 14 15 16 17 18 19 20 21 22 23 24 25 26 27
000
ASUS44 KJAN 060010
RWRMS

MISSISSIPPI HOURLY WEATHER ROUNDUP
NATIONAL WEATHER SERVICE JACKSON MS
600 PM CST SUN DEC 05 2021

NOTE: "FAIR: INDICATES FEW OR NO CLOUDS BELOW 12,000 FEET WITH NO
SIGNIFICANT WEATHER AND/OR OBSTRUCTIONS TO VISIBILITY.

MSZ001>002-007>008-010>013-018>021-025>028-034>036-060100-
NORTHWEST MISSISSIPPI

CITY           SKY/WX    TMP DP  RH WIND       PRES   REMARKS
BATESVILLE     FAIR      70  61  73 S9        29.91S
CLARKSDALE     PTCLDY    70  63  78 S6        29.91R
GREENWOOD      MOCLDY    71  59  65 S12G25    29.94R
6HR MIN TEMP:  67; 6HR MAX TEMP:  80;

GREENVILLE     MOCLDY    70  56  61 S12       29.91R
6HR MIN TEMP:  70; 6HR MAX TEMP:  78;

OLIVE BRANCH   PTCLDY    68  63  83 S12       29.90R
OXFORD           N/A    N/A N/A N/A MISG        N/A
TUNICA         MOCLDY    68  59  73 S9        29.90R
WINONA         FAIR      67  58  73 S8        29.95S
$$

MSZ003>006-009-014>017-022>024-029>033-037>039-060100-
NORTHEAST MISSISSIPPI

CITY           SKY/WX    TMP DP  RH WIND       PRES   REMARKS
ABERDEEN       FAIR      68  61  77 S7        29.98R
COLUMBUS AFB   MOCLDY    69  57  67 S8        29.96R
6HR MIN TEMP:  69; 6HR MAX TEMP:  77;

CORINTH        MOCLDY    66  59  77 S8        29.93R
GOLDN TRIANGLE MOCLDY    67  59  75 S10       29.99R
STARKVILLE     FAIR      66  59  77 S5        29.97R
TUPELO         MOCLDY    67  59  75 S8        29.95R
6HR MIN TEMP:  67; 6HR MAX TEMP:  76;

$$

MSZ040-058-060100-
CENTRAL MISSISSIPPI

CITY           SKY/WX    TMP DP  RH WIND       PRES   REMARKS
JACKSON INTL   MOCLDY    66  59  78 S6        29.98R
6HR MIN TEMP:  66; 6HR MAX TEMP:  77;

JACKSON HAWKNS MOCLDY    67  60  78 S6        29.98R
6HR MIN TEMP:  67; 6HR MAX TEMP:  78;

MERIDIAN KEY   PTCLDY    69  59  70 S7        30.01R
6HR MIN TEMP:  68; 6HR MAX TEMP:  79;

MERIDIAN NAS   CLOUDY    70  61  73 S5        30.01R
6HR MIN TEMP:  69; 6HR MAX TEMP:  77;

PRESTON        PTCLDY    68  60  75 SE6       29.97R
RAYMOND        FAIR      70  70 100 S6        29.97S
VICKSBURG VKS  CLEAR     68  61  77 S6        29.96R
$$

MSZ059>079-060100-
SOUTH MISSISSIPPI

CITY           SKY/WX    TMP DP  RH WIND       PRES   REMARKS
BROOKHAVEN       N/A     66  66 100 CALM      30.00R
HATTIESBURG    MOCLDY    69  60  73 SE7       30.03S
6HR MIN TEMP:  67; 6HR MAX TEMP:  77;

LAUREL         CLEAR     69  62  79 S8        30.01S
MCCOMB         CLOUDY    68  64  87 S8        29.99S
6HR MIN TEMP:  67; 6HR MAX TEMP:  75;

NATCHEZ        MOCLDY    68  61  78 S6        29.99R
6HR MIN TEMP:  66; 6HR MAX TEMP:  77;

PINE BELT      MOCLDY    68  64  87 S10       30.02S
6HR MIN TEMP:  68; 6HR MAX TEMP:  77;

$$

MSZ080>082-060100-
COASTAL MISSISSIPPI

CITY           SKY/WX    TMP DP  RH WIND       PRES   REMARKS
BAY ST LOUIS   CLEAR     68  64  88 SE8       30.03S
BILOXI         MOCLDY    69  61  75 SE8       30.03S
6HR MIN TEMP:  69; 6HR MAX TEMP:  74;

PASCAGOULA     MOCLDY    69  66  90 SE8       30.06R
6HR MIN TEMP:  68; 6HR MAX TEMP:  77;

GULFPORT       MOCLDY    69  66  90 SE10      30.03F
6HR MIN TEMP:  69; 6HR MAX TEMP:  75;

$$

LAZ007>009-015>016-023>026-060100-
NORTHEAST LOUISIANA

CITY           SKY/WX    TMP DP  RH WIND       PRES   REMARKS
TALLULAH/VBURG MOCLDY    71  59  65 S7        29.97R
6HR MIN TEMP:  70; 6HR MAX TEMP:  81;

$$



USA.gov is the U.S. government's official web portal to all federal, state and local government web resources and services.